Location: Omaha
(41.2590°N, 95.9380°W)
Time: 09:05:34
(UTC-06:00)

Envisat - Pass Details

Date: 10 October 2017
Orbit: 764 x 766 km, 98.2° (Epoch: 16 December)

Event Time Altitude Azimuth Distance (km) Brightness Sun altitude
Exits shadow 20:07:46 23° 76° (ENE) 1,603 4.1 -15.4°
Maximum altitude 20:08:24 23° 65° (ENE) 1,581 4.1 -15.5°
Drops below altitude 10° 20:12:21 10° 14° (NNE) 2,313 5.4 -16.2°
Sets 20:15:03 0° 1° (N) 3,244 6.3 -16.7°
